Regional Weather Roundup
Issued by NWS

Home | Current Version | Previous Version | Text Only | Print | Product List | Glossary On
Versions: 1 2 3 4 5 6 7 8 9 10 11 12 13 14 15 16 17 18 19 20 21 22 23 24 25 26 27 28 29 30 31 32 33 34 35 36 37 38 39 40 41 42 43 44 45 46 47 48 49 50
000
ASUS43 KTOP 181959
RWRKS

WEATHER ROUNDUP FOR KANSAS
NATIONAL WEATHER SERVICE GOODLAND KS
200 PM CST SAT FEB 18 2017

NOTE:  "FAIR" INDICATES FEW OR NO CLOUDS BELOW 12,000 FEET WITH NO
SIGNIFICANT WEATHER AND/OR OBSTRUCTIONS TO VISIBILITY.

KSZ001>006-013>018-027>032-041>047-182100-
NORTHWEST KANSAS

CITY           SKY/WX    TMP DP  RH WIND       PRES   REMARKS
GOODLAND       CLOUDY    62  27  26 S15       29.75F
HAYS           SUNNY     67  38  34 SE8       29.74F
HILL CITY      SUNNY     63  40  42 E9        29.75F
RUSSELL        SUNNY     70  39  32 SE13      29.73F
$$

KSZ061>065-074>080-084>089-182100-
SOUTHWEST KANSAS

CITY           SKY/WX    TMP DP  RH WIND       PRES   REMARKS
DODGE CITY     SUNNY     73  31  21 S13       29.75F
ELKHART          N/A     65  28  24 S17         N/A
GARDEN CITY    MOSUNNY   70  27  20 S18       29.74F
LIBERAL        CLOUDY    72  30  21 S12G20    29.77F
$$

KSZ066>073-081>083-090>101-182100-
SOUTHEAST KANSAS

CITY           SKY/WX    TMP DP  RH WIND       PRES   REMARKS
CHANUTE        SUNNY     70  49  47 S12G17    29.79F
COFFEYVILLE    SUNNY     65  52  62 S10       29.81F
HUTCHINSON     SUNNY     72  45  37 S13G18    29.75F
MEDICINE LODGE   N/A     68  45  43 SE10      29.75F
NEWTON         SUNNY     71  43  36 SE15      29.76F
PARSONS        SUNNY     67  51  56 S6        29.81F
WICHITA INTL   MOSUNNY   71  46  40 S10       29.76F
WICHITA JABRA  SUNNY     72  43  35 S12       29.76F
WINFIELD       SUNNY     71  45  39 S8        29.79F
$$

KSZ007>012-019>026-033>040-048>060-102>105-182100-
NORTHEAST KANSAS

CITY           SKY/WX    TMP DP  RH WIND       PRES   REMARKS
CONCORDIA      SUNNY     68  42  38 SE8       29.75F
EMPORIA        SUNNY     72  41  32 SE7       29.76F
LAWRENCE       SUNNY     68  44  42 VRB6      29.78F
MANHATTAN      SUNNY     70  44  39 NE6       29.76F
OLATHE IND     SUNNY     68  46  45 SW9       29.79F
OLATHE EXE     SUNNY     66  46  48 SW3       29.78F
SALINA         SUNNY     74  44  34 S8        29.75F
TOPEKA BILLARD SUNNY     69  44  40 S3        29.77F
TOPEKA FORBES  SUNNY     72  45  37 CALM      29.78F
$$




USA.gov is the U.S. government's official web portal to all federal, state and local government web resources and services.